• In Netherlands
  • List of Countries
  • For 7 days
  • Water Temperature
  • Satellite Maps
  • Weather Map
  • Weather Widgets
  • user-avatar
    Login

    Hourly Weather La Rioja

    Today, 21 February, Wednesday

    Time Temperature Precipitation Wind Pressure Humidity
    00:00 +27°C° 2.5 mm 2 mps 717 mmHg 62%
    01:00 +26°C° 2.5 mm 2 mps 717 mmHg 65%
    02:00 +25°C° 2.5 mm 2 mps 717 mmHg 68%
    03:00 +25°C° 1 mm 2 mps 717 mmHg 69%
    04:00 +24°C° 1 mm 2 mps 717 mmHg 70%
    05:00 +24°C° 1 mm 1 mps 717 mmHg 72%
    06:00 +24°C° 0.1 mm 1 mps 718 mmHg 67%
    07:00 +25°C° 0.1 mm 1 mps 718 mmHg 62%
    08:00 +26°C° 0.1 mm 1 mps 718 mmHg 57%
    09:00 +27°C° 0 mm 1 mps 718 mmHg 52%
    10:00 +29°C° 0 mm 2 mps 718 mmHg 46%
    11:00 +30°C° 0 mm 2 mps 718 mmHg 41%
    12:00 +31°C° 0.1 mm 2 mps 717 mmHg 39%
    13:00 +33°C° 0.1 mm 3 mps 716 mmHg 37%
    14:00 +34°C° 0.1 mm 3 mps 715 mmHg 35%
    15:00 +34°C° 0 mm 3 mps 715 mmHg 34%
    16:00 +35°C° 0 mm 3 mps 714 mmHg 33%
    17:00 +35°C° 0 mm 4 mps 713 mmHg 32%
    18:00 +34°C° 0 mm 3 mps 714 mmHg 36%
    19:00 +31°C° 0 mm 3 mps 714 mmHg 39%
    20:00 +30°C° 0 mm 2 mps 714 mmHg 43%
    21:00 +29°C° 0 mm 2 mps 715 mmHg 46%
    22:00 +28°C° 0 mm 2 mps 715 mmHg 48%
    23:00 +27°C° 0 mm 2 mps 716 mmHg 51%

    Tomorrow, 22 February, Thursday

    Time Temperature Precipitation Wind Pressure Humidity
    00:00 +27°C° 0 mm 2 mps 716 mmHg 52%
    01:00 +26°C° 0 mm 2 mps 715 mmHg 53%
    02:00 +26°C° 0 mm 2 mps 715 mmHg 55%
    03:00 +26°C° 0 mm 1 mps 715 mmHg 55%
    04:00 +25°C° 0 mm 1 mps 715 mmHg 56%
    05:00 +25°C° 0 mm 1 mps 715 mmHg 56%
    06:00 +26°C° 0 mm 1 mps 716 mmHg 53%
    07:00 +27°C° 0 mm 2 mps 716 mmHg 49%
    08:00 +27°C° 0 mm 2 mps 717 mmHg 46%
    09:00 +29°C° 0 mm 2 mps 717 mmHg 43%
    10:00 +30°C° 0 mm 2 mps 717 mmHg 41%
    11:00 +31°C° 0 mm 2 mps 717 mmHg 38%
    12:00 +33°C° 0.2 mm 3 mps 716 mmHg 36%
    13:00 +34°C° 0.2 mm 3 mps 715 mmHg 34%
    14:00 +35°C° 0.2 mm 4 mps 715 mmHg 32%
    15:00 +35°C° 0.1 mm 4 mps 714 mmHg 31%
    16:00 +35°C° 0.1 mm 5 mps 714 mmHg 30%
    17:00 +36°C° 0.1 mm 6 mps 713 mmHg 28%
    18:00 +34°C° 0 mm 5 mps 713 mmHg 32%
    19:00 +32°C° 0 mm 4 mps 713 mmHg 36%
    20:00 +30°C° 0 mm 3 mps 714 mmHg 40%
    21:00 +29°C° 0.1 mm 3 mps 714 mmHg 43%
    22:00 +28°C° 0.1 mm 2 mps 714 mmHg 45%
    23:00 +28°C° 0.1 mm 2 mps 715 mmHg 47%

    Day after tomorrow, 23 February, Friday

    Time Temperature Precipitation Wind Pressure Humidity
    00:00 +27°C° 0 mm 2 mps 714 mmHg 48%
    01:00 +27°C° 0 mm 2 mps 714 mmHg 49%
    02:00 +26°C° 0 mm 2 mps 714 mmHg 50%
    03:00 +26°C° 0 mm 2 mps 713 mmHg 51%
    04:00 +25°C° 0 mm 2 mps 713 mmHg 52%
    05:00 +25°C° 0 mm 2 mps 713 mmHg 53%
    06:00 +26°C° 0 mm 2 mps 713 mmHg 50%
    07:00 +27°C° 0 mm 2 mps 714 mmHg 47%
    08:00 +28°C° 0 mm 2 mps 714 mmHg 44%
    09:00 +29°C° 0 mm 2 mps 714 mmHg 41%
    10:00 +30°C° 0 mm 2 mps 715 mmHg 39%
    11:00 +31°C° 0 mm 3 mps 715 mmHg 36%
    12:00 +33°C° 0 mm 3 mps 714 mmHg 34%
    13:00 +34°C° 0 mm 3 mps 714 mmHg 32%
    14:00 +35°C° 0 mm 4 mps 713 mmHg 30%
    15:00 +35°C° 0.1 mm 4 mps 713 mmHg 30%
    16:00 +36°C° 0.1 mm 5 mps 713 mmHg 29%
    17:00 +36°C° 0.1 mm 6 mps 713 mmHg 29%
    18:00 +34°C° 0.1 mm 5 mps 713 mmHg 32%
    19:00 +33°C° 0.1 mm 4 mps 714 mmHg 35%
    20:00 +30°C° 0.1 mm 3 mps 714 mmHg 38%
    21:00 +29°C° 0.1 mm 3 mps 715 mmHg 40%
    22:00 +28°C° 0.1 mm 3 mps 715 mmHg 42%
    23:00 +28°C° 0.1 mm 2 mps 716 mmHg 44%

    24 February, Saturday

    Time Temperature Precipitation Wind Pressure Humidity
    00:00 +27°C° 0.1 mm 2 mps 716 mmHg 45%
    01:00 +27°C° 0.1 mm 2 mps 716 mmHg 46%
    02:00 +26°C° 0.1 mm 2 mps 716 mmHg 47%
    03:00 +26°C° 0 mm 2 mps 716 mmHg 49%
    04:00 +25°C° 0 mm 2 mps 716 mmHg 50%
    05:00 +25°C° 0 mm 2 mps 716 mmHg 51%
    06:00 +25°C° 0 mm 3 mps 716 mmHg 52%
    07:00 +25°C° 0 mm 3 mps 716 mmHg 52%
    08:00 +26°C° 0 mm 4 mps 717 mmHg 52%
    09:00 +27°C° 0 mm 4 mps 717 mmHg 48%
    10:00 +28°C° 0 mm 4 mps 716 mmHg 44%
    11:00 +30°C° 0 mm 4 mps 716 mmHg 40%
    12:00 +30°C° 0 mm 3 mps 715 mmHg 38%
    13:00 +31°C° 0 mm 3 mps 715 mmHg 37%
    14:00 +33°C° 0 mm 3 mps 714 mmHg 35%
    15:00 +33°C° 0 mm 3 mps 714 mmHg 34%
    16:00 +34°C° 0 mm 3 mps 713 mmHg 34%
    17:00 +34°C° 0 mm 4 mps 713 mmHg 33%
    18:00 +33°C° 0.1 mm 3 mps 713 mmHg 36%
    19:00 +31°C° 0.1 mm 3 mps 714 mmHg 40%
    20:00 +30°C° 0.1 mm 3 mps 715 mmHg 43%
    21:00 +29°C° 0.2 mm 3 mps 715 mmHg 44%
    22:00 +29°C° 0.2 mm 2 mps 716 mmHg 46%
    23:00 +28°C° 0.2 mm 2 mps 716 mmHg 48%

    25 February, Sunday

    Time Temperature Precipitation Wind Pressure Humidity
    00:00 +27°C° 0.4 mm 2 mps 716 mmHg 50%
    01:00 +27°C° 0.4 mm 2 mps 716 mmHg 51%
    02:00 +26°C° 0.4 mm 2 mps 715 mmHg 53%
    03:00 +25°C° 0.1 mm 2 mps 715 mmHg 54%
    04:00 +25°C° 0.1 mm 1 mps 715 mmHg 56%
    05:00 +25°C° 0.1 mm 1 mps 715 mmHg 57%
    06:00 +25°C° 0.2 mm 1 mps 716 mmHg 53%
    07:00 +26°C° 0.2 mm 2 mps 716 mmHg 49%
    08:00 +27°C° 0.2 mm 2 mps 717 mmHg 46%
    09:00 +28°C° 0.1 mm 2 mps 717 mmHg 43%
    10:00 +29°C° 0.1 mm 2 mps 717 mmHg 41%
    11:00 +30°C° 0.1 mm 3 mps 716 mmHg 38%
    12:00 +31°C° 0 mm 3 mps 716 mmHg 37%
    13:00 +33°C° 0 mm 3 mps 715 mmHg 36%
    14:00 +34°C° 0 mm 3 mps 715 mmHg 35%
    15:00 +34°C° 0.1 mm 3 mps 714 mmHg 35%
    16:00 +34°C° 0.1 mm 4 mps 714 mmHg 36%
    17:00 +34°C° 0.1 mm 4 mps 714 mmHg 36%
    18:00 +33°C° 0.1 mm 3 mps 714 mmHg 40%
    19:00 +30°C° 0.1 mm 2 mps 714 mmHg 44%
    20:00 +29°C° 0.1 mm 1 mps 715 mmHg 49%
    21:00 +29°C° 0.1 mm 2 mps 715 mmHg 50%
    22:00 +28°C° 0.1 mm 2 mps 715 mmHg 52%
    23:00 +27°C° 0.1 mm 2 mps 715 mmHg 53%

    26 February, Monday

    Time Temperature Precipitation Wind Pressure Humidity
    00:00 +27°C° 0.2 mm 2 mps 715 mmHg 55%
    01:00 +26°C° 0.2 mm 2 mps 715 mmHg 56%
    02:00 +26°C° 0.2 mm 2 mps 715 mmHg 58%
    03:00 +25°C° 0.3 mm 1 mps 715 mmHg 59%
    04:00 +25°C° 0.3 mm 1 mps 715 mmHg 60%
    05:00 +24°C° 0.3 mm 1 mps 715 mmHg 62%
    06:00 +25°C° 0.3 mm 1 mps 715 mmHg 58%
    07:00 +26°C° 0.3 mm 1 mps 716 mmHg 54%
    08:00 +27°C° 0.3 mm 1 mps 716 mmHg 50%
    09:00 +28°C° 0.3 mm 2 mps 716 mmHg 46%
    10:00 +30°C° 0.3 mm 2 mps 716 mmHg 43%
    11:00 +31°C° 0.3 mm 2 mps 716 mmHg 39%
    12:00 +32°C° 0.1 mm 2 mps 715 mmHg 38%
    13:00 +34°C° 0.1 mm 2 mps 714 mmHg 36%
    14:00 +35°C° 0.1 mm 2 mps 713 mmHg 34%
    15:00 +35°C° 0.1 mm 2 mps 713 mmHg 35%
    16:00 +35°C° 0.1 mm 3 mps 712 mmHg 35%
    17:00 +35°C° 0.1 mm 3 mps 712 mmHg 35%
    18:00 +34°C° 0.4 mm 3 mps 712 mmHg 39%
    19:00 +31°C° 0.4 mm 2 mps 713 mmHg 43%
    20:00 +30°C° 0.4 mm 2 mps 713 mmHg 47%
    21:00 +29°C° 0.4 mm 2 mps 713 mmHg 49%
    22:00 +28°C° 0.4 mm 2 mps 714 mmHg 51%
    23:00 +28°C° 0.4 mm 2 mps 714 mmHg 53%
    Show more